When you browse on this site, cookies collect data to enhance your experience and personalize the content and advertising you see.
Visit our Privacy Policy to learn more. By continuing to use the site, you agree to this use of cookies and data.
  • In Hungary
  • List of Countries
  • For 7 days
  • Water Temperature
  • Satellite Maps
  • Weather Map
  • News
  • Weather Widgets
  • user-avatar
    Login

    Hourly Weather Kathua

    Today, 24 April, Wednesday

    Time Temperature Precipitation Wind Pressure Humidity
    00:00 +29°C° 0 mm 3 mps 733 mmHg 24%
    01:00 +29°C° 0 mm 3 mps 733 mmHg 23%
    02:00 +29°C° 0 mm 3 mps 733 mmHg 23%
    03:00 +29°C° 0 mm 3 mps 732 mmHg 23%
    04:00 +28°C° 0 mm 2 mps 732 mmHg 23%
    05:00 +27°C° 0 mm 2 mps 734 mmHg 28%
    06:00 +29°C° 0 mm 1 mps 733 mmHg 25%
    07:00 +31°C° 0 mm 1 mps 733 mmHg 23%
    08:00 +33°C° 0 mm 1 mps 733 mmHg 20%
    09:00 +35°C° 0 mm 1 mps 733 mmHg 18%
    10:00 +38°C° 0 mm 2 mps 733 mmHg 16%
    11:00 +41°C° 0 mm 2 mps 733 mmHg 14%
    12:00 +42°C° 0 mm 3 mps 733 mmHg 14%
    13:00 +43°C° 0 mm 3 mps 733 mmHg 14%
    14:00 +43°C° 0 mm 4 mps 732 mmHg 14%
    15:00 +42°C° 0 mm 3 mps 732 mmHg 15%
    16:00 +42°C° 0 mm 3 mps 732 mmHg 16%
    17:00 +40°C° 0 mm 4 mps 732 mmHg 18%
    18:00 +37°C° 0 mm 4 mps 733 mmHg 21%
    19:00 +35°C° 0 mm 4 mps 733 mmHg 23%
    20:00 +33°C° 0 mm 4 mps 733 mmHg 26%
    21:00 +33°C° 0 mm 5 mps 733 mmHg 25%
    22:00 +33°C° 0 mm 5 mps 733 mmHg 24%
    23:00 +33°C° 0 mm 5 mps 733 mmHg 23%

    Tomorrow, 25 April, Thursday

    Time Temperature Precipitation Wind Pressure Humidity
    00:00 +33°C° 0 mm 5 mps 733 mmHg 23%
    01:00 +32°C° 0 mm 4 mps 733 mmHg 23%
    02:00 +32°C° 0 mm 4 mps 732 mmHg 23%
    03:00 +32°C° 0 mm 4 mps 732 mmHg 24%
    04:00 +30°C° 0 mm 3 mps 732 mmHg 25%
    05:00 +30°C° 0 mm 3 mps 732 mmHg 25%
    06:00 +30°C° 0 mm 3 mps 733 mmHg 26%
    07:00 +31°C° 0 mm 2 mps 733 mmHg 27%
    08:00 +32°C° 0 mm 2 mps 733 mmHg 28%
    09:00 +35°C° 0 mm 2 mps 733 mmHg 23%
    10:00 +37°C° 0 mm 1 mps 734 mmHg 19%
    11:00 +41°C° 0 mm 1 mps 734 mmHg 14%
    12:00 +41°C° 0 mm 2 mps 733 mmHg 14%
    13:00 +41°C° 0 mm 2 mps 733 mmHg 13%
    14:00 +42°C° 0 mm 3 mps 732 mmHg 13%
    15:00 +42°C° 0 mm 3 mps 732 mmHg 13%
    16:00 +40°C° 0 mm 3 mps 732 mmHg 13%
    17:00 +40°C° 0 mm 3 mps 731 mmHg 13%
    18:00 +38°C° 0 mm 3 mps 732 mmHg 15%
    19:00 +35°C° 0 mm 4 mps 732 mmHg 17%
    20:00 +33°C° 0 mm 4 mps 732 mmHg 19%
    21:00 +32°C° 0 mm 4 mps 732 mmHg 21%
    22:00 +31°C° 0 mm 3 mps 732 mmHg 22%
    23:00 +30°C° 0 mm 3 mps 732 mmHg 24%

    Day after tomorrow, 26 April, Friday

    Time Temperature Precipitation Wind Pressure Humidity
    00:00 +30°C° 0 mm 3 mps 732 mmHg 22%
    01:00 +31°C° 0 mm 3 mps 732 mmHg 21%
    02:00 +31°C° 0 mm 3 mps 732 mmHg 20%
    03:00 +31°C° 0 mm 3 mps 732 mmHg 20%
    04:00 +30°C° 0 mm 4 mps 732 mmHg 20%
    05:00 +30°C° 0 mm 4 mps 732 mmHg 21%
    06:00 +32°C° 0 mm 4 mps 732 mmHg 20%
    07:00 +34°C° 0 mm 5 mps 733 mmHg 19%
    08:00 +35°C° 0 mm 5 mps 733 mmHg 19%
    09:00 +37°C° 0 mm 4 mps 733 mmHg 17%
    10:00 +39°C° 0 mm 3 mps 733 mmHg 15%
    11:00 +40°C° 0 mm 2 mps 733 mmHg 12%
    12:00 +42°C° 0 mm 3 mps 733 mmHg 12%
    13:00 +42°C° 0 mm 3 mps 732 mmHg 11%
    14:00 +43°C° 0 mm 4 mps 732 mmHg 11%
    15:00 +42°C° 0 mm 4 mps 731 mmHg 11%
    16:00 +42°C° 0 mm 4 mps 731 mmHg 12%
    17:00 +41°C° 0 mm 4 mps 731 mmHg 12%
    18:00 +38°C° 0 mm 3 mps 731 mmHg 14%
    19:00 +35°C° 0 mm 3 mps 732 mmHg 16%
    20:00 +33°C° 0 mm 3 mps 733 mmHg 17%
    21:00 +31°C° 0 mm 3 mps 733 mmHg 17%
    22:00 +30°C° 0 mm 3 mps 733 mmHg 17%
    23:00 +29°C° 0 mm 3 mps 734 mmHg 17%

    27 April, Saturday

    Time Temperature Precipitation Wind Pressure Humidity
    00:00 +29°C° 0 mm 3 mps 733 mmHg 18%
    01:00 +28°C° 0 mm 3 mps 733 mmHg 18%
    02:00 +28°C° 0 mm 4 mps 733 mmHg 18%
    03:00 +28°C° 0 mm 3 mps 732 mmHg 18%
    04:00 +27°C° 0 mm 3 mps 732 mmHg 17%
    05:00 +26°C° 0 mm 2 mps 732 mmHg 17%
    06:00 +29°C° 0 mm 2 mps 732 mmHg 15%
    07:00 +31°C° 0 mm 1 mps 732 mmHg 14%
    08:00 +34°C° 0 mm 1 mps 733 mmHg 12%
    09:00 +37°C° 0 mm 2 mps 733 mmHg 10%
    10:00 +39°C° 0 mm 2 mps 733 mmHg 8%
    11:00 +42°C° 0 mm 3 mps 733 mmHg 6%
    12:00 +42°C° 0 mm 4 mps 732 mmHg 6%
    13:00 +43°C° 0 mm 5 mps 732 mmHg 6%
    14:00 +45°C° 0 mm 6 mps 731 mmHg 6%
    15:00 +43°C° 0 mm 5 mps 731 mmHg 7%
    16:00 +42°C° 0 mm 5 mps 730 mmHg 8%
    17:00 +42°C° 0 mm 5 mps 730 mmHg 8%
    18:00 +38°C° 0 mm 4 mps 731 mmHg 10%
    19:00 +35°C° 0 mm 3 mps 731 mmHg 11%
    20:00 +31°C° 0 mm 3 mps 732 mmHg 12%
    21:00 +31°C° 0 mm 3 mps 732 mmHg 12%
    22:00 +30°C° 0 mm 3 mps 732 mmHg 13%
    23:00 +29°C° 0 mm 2 mps 732 mmHg 13%

    28 April, Sunday

    Time Temperature Precipitation Wind Pressure Humidity
    00:00 +28°C° 0 mm 2 mps 732 mmHg 13%
    01:00 +28°C° 0 mm 3 mps 732 mmHg 14%
    02:00 +27°C° 0 mm 3 mps 731 mmHg 14%
    03:00 +27°C° 0 mm 2 mps 731 mmHg 14%
    04:00 +27°C° 0 mm 2 mps 731 mmHg 14%
    05:00 +26°C° 0 mm 2 mps 731 mmHg 14%
    06:00 +29°C° 0 mm 2 mps 731 mmHg 13%
    07:00 +31°C° 0 mm 1 mps 731 mmHg 12%
    08:00 +34°C° 0 mm 1 mps 732 mmHg 11%
    09:00 +36°C° 0 mm 1 mps 731 mmHg 9%
    10:00 +39°C° 0 mm 2 mps 731 mmHg 8%
    11:00 +42°C° 0 mm 3 mps 731 mmHg 6%
    12:00 +43°C° 0 mm 4 mps 731 mmHg 6%
    13:00 +45°C° 0 mm 5 mps 730 mmHg 6%
    14:00 +45°C° 0 mm 6 mps 730 mmHg 5%
    15:00 +45°C° 0 mm 5 mps 730 mmHg 6%
    16:00 +43°C° 0 mm 5 mps 730 mmHg 7%
    17:00 +42°C° 0 mm 5 mps 729 mmHg 7%
    18:00 +38°C° 0 mm 4 mps 730 mmHg 8%
    19:00 +36°C° 0 mm 4 mps 730 mmHg 9%
    20:00 +33°C° 0 mm 3 mps 731 mmHg 10%
    21:00 +33°C° 0 mm 3 mps 731 mmHg 10%
    22:00 +31°C° 0 mm 3 mps 731 mmHg 10%
    23:00 +31°C° 0 mm 2 mps 731 mmHg 11%

    29 April, Monday

    Time Temperature Precipitation Wind Pressure Humidity
    00:00 +30°C° 0 mm 3 mps 731 mmHg 11%
    01:00 +30°C° 0 mm 3 mps 730 mmHg 12%
    02:00 +29°C° 0 mm 3 mps 730 mmHg 12%
    03:00 +29°C° 0 mm 3 mps 730 mmHg 12%
    04:00 +28°C° 0 mm 2 mps 730 mmHg 13%
    05:00 +27°C° 0 mm 2 mps 729 mmHg 13%
    06:00 +30°C° 0 mm 2 mps 730 mmHg 12%
    07:00 +32°C° 0 mm 1 mps 730 mmHg 11%
    08:00 +35°C° 0 mm 1 mps 731 mmHg 10%
    09:00 +37°C° 0 mm 1 mps 731 mmHg 8%
    10:00 +39°C° 0 mm 2 mps 731 mmHg 7%
    11:00 +41°C° 0 mm 2 mps 731 mmHg 5%
    12:00 +42°C° 0 mm 2 mps 730 mmHg 5%
    13:00 +43°C° 0 mm 3 mps 729 mmHg 5%
    14:00 +44°C° 0 mm 3 mps 729 mmHg 4%
    15:00 +43°C° 0 mm 3 mps 729 mmHg 5%
    16:00 +43°C° 0 mm 3 mps 728 mmHg 5%
    17:00 +42°C° 0 mm 3 mps 728 mmHg 5%
    18:00 +39°C° 0 mm 3 mps 729 mmHg 6%
    19:00 +36°C° 0 mm 3 mps 729 mmHg 7%
    20:00 +33°C° 0 mm 3 mps 730 mmHg 8%
    21:00 +31°C° 0 mm 3 mps 730 mmHg 9%
    22:00 +30°C° 0 mm 3 mps 730 mmHg 9%
    23:00 +30°C° 0 mm 3 mps 730 mmHg 10%
    Show more